Temperature
21 20 20 21 26 29 29 29 29 29 29 28 27 27 28 28 27 26 22 22 21 20 19 20 20 20 20 20 20 20 19 19 19 19 19 19 18 18 18 18 18 18 18 18 18 18 18 18 18
20 20 21 25 29 29 29 30 29 29 28 27 27 27 27 27 25 23 21 21 20 20 19 19 20 20 20 20 20 20 19 19 19 19 19 19 18 18 18 18 18 18 18 18 18 18 18 18 17
20 21 24 29 29 29 29 30 30 29 27 27 27 27 27 26 23 22 21 20 20 20 19 19 20 20 20 20 20 20 19 19 19 19 19 19 18 18 18 18 18 18 18 18 18 18 18 18 17
21 23 26 29 30 30 30 30 30 29 28 27 27 27 25 23 22 22 21 20 21 20 19 19 20 20 20 20 19 19 19 19 19 19 19 19 18 18 18 18 18 18 18 18 18 17 17 17 17
22 26 29 30 30 30 30 30 29 29 29 28 27 28 26 22 21 21 20 21 20 20 19 19 20 20 19 19 19 19 19 19 19 19 19 18 18 18 18 18 18 18 18 18 17 17 17 17 17
26 28 30 30 30 30 31 30 29 30 29 28 27 27 25 21 21 21 20 21 20 20 19 18 20 19 19 19 19 19 19 19 19 19 18 18 18 18 18 18 18 17 17 17 17 17 17 17 17
27 29 30 30 30 30 31 30 30 30 29 28 27 27 24 21 21 20 20 20 20 20 20 18 18 19 19 19 19 19 19 19 19 18 18 18 18 18 18 18 18 17 17 17 17 17 17 17 17
26 29 30 30 30 30 31 30 29 29 29 27 26 27 25 21 20 20 20 20 20 20 19 18 18 18 18 18 19 19 18 18 18 18 18 18 18 18 18 18 18 18 17 17 17 17 17 17 17
25 29 30 30 30 30 31 30 29 28 28 27 26 26 24 21 20 20 20 20 19 19 19 19 18 18 18 18 18 18 18 18 18 18 18 18 17 17 17 17 18 17 17 17 17 17 17 17 17
27 29 30 31 31 31 30 30 29 29 28 27 26 23 22 20 20 20 19 19 19 19 19 18 18 18 18 18 18 18 17 18 17 17 17 17 17 17 17 17 18 18 18 17 17 17 17 17 17
28 29 30 30 30 30 30 30 29 29 29 28 27 24 21 20 19 20 19 19 19 19 18 18 18 18 18 18 18 18 17 18 17 17 17 17 17 17 17 17 17 17 17 17 17 17 17 17 17
29 30 29 30 30 30 30 30 30 29 29 27 26 24 21 20 20 20 20 19 19 19 18 18 18 18 18 18 18 18 18 18 17 17 17 17 17 17 17 17 17 17 17 17 17 17 17 17 17
29 30 30 30 30 30 29 29 29 29 27 26 25 23 21 21 20 20 19 19 19 18 18 18 18 18 18 18 18 18 18 17 17 17 17 17 17 17 17 17 17 17 17 17 17 16 17 17 16
29 29 30 30 30 29 30 30 29 28 26 25 24 23 21 21 20 19 19 18 18 18 18 18 18 18 18 18 18 17 17 17 17 17 17 17 17 17 17 17 17 17 17 17 16 16 16 17 17
28 30 31 31 30 30 29 30 29 27 26 25 24 23 21 20 20 19 19 18 18 18 18 18 18 18 18 18 18 17 17 17 17 17 17 17 17 17 17 17 17 17 16 16 16 16 16 17 17
30 30 30 31 30 29 29 30 29 26 26 25 24 22 21 20 19 19 18 18 18 18 18 18 17 17 18 18 18 17 17 17 17 17 17 17 17 17 17 17 17 16 16 16 16 16 16 16 16
30 30 30 30 30 30 30 30 29 26 26 25 23 22 21 19 19 19 18 18 18 18 18 18 17 17 17 18 17 17 17 17 17 17 17 17 17 17 16 16 16 16 16 16 16 16 17 16 16
29 29 30 30 30 30 30 30 29 26 25 25 23 22 21 20 19 18 18 18 18 18 18 17 17 17 17 17 17 17 17 17 17 17 17 17 17 17 16 16 16 16 16 16 16 16 16 16 16
29 29 29 30 30 30 30 29 29 27 25 25 23 22 21 20 20 18 18 18 17 17 18 17 17 17 17 17 17 17 17 17 17 17 17 17 16 16 16 16 16 16 16 16 16 16 16 16 16
28 28 29 30 30 29 29 29 29 27 26 24 24 23 22 21 20 18 17 17 17 17 17 17 17 17 17 17 17 17 17 17 17 17 17 16 16 16 16 16 16 16 16 15 15 15 16 16 16
28 29 29 29 30 29 29 29 28 27 26 24 24 23 22 21 20 18 18 17 17 17 17 17 17 17 17 17 17 17 17 17 17 16 17 16 16 16 16 16 16 15 15 15 15 15 15 16 16
28 29 29 29 29 30 29 28 29 28 27 26 24 23 22 21 20 18 18 17 17 17 17 17 17 17 17 17 17 17 17 17 17 17 16 16 16 16 15 15 15 15 15 15 15 15 15 15 16
29 29 29 29 29 29 29 28 29 28 28 27 26 24 22 21 20 19 18 17 17 17 16 16 17 17 17 17 17 17 17 16 17 16 16 16 16 16 15 15 15 15 15 15 15 15 15 15 16
29 28 28 29 29 28 28 28 28 29 28 27 26 24 22 21 20 18 18 17 17 16 16 16 16 16 16 17 17 17 16 16 16 16 16 16 16 15 15 15 15 15 15 14 14 15 15 15 15
28 28 28 28 28 28 28 28 29 29 28 27 26 24 22 21 20 19 18 17 17 17 16 16 16 16 16 16 16 17 16 17 16 16 16 16 16 15 15 15 15 15 15 14 14 15 15 15 15
29 29 27 27 27 29 28 28 29 28 27 26 25 24 22 21 20 19 18 17 17 17 16 16 16 16 16 16 16 16 16 16 16 16 16 16 16 16 15 15 15 15 15 14 15 15 14 14 15
28 29 30 29 28 28 29 29 29 27 27 26 25 24 23 22 21 19 18 17 17 17 16 16 16 16 16 16 16 16 16 16 16 16 16 16 16 15 15 15 15 15 15 15 15 14 14 14 14
29 30 29 28 27 27 28 28 29 28 28 27 26 25 23 22 21 19 18 18 17 17 16 16 16 16 16 16 16 16 16 16 16 16 16 16 16 15 15 15 15 15 15 15 15 14 14 14 14
28 28 28 29 28 27 27 28 30 29 28 27 26 25 23 22 21 20 19 18 17 17 16 16 16 16 16 16 16 16 16 16 16 16 16 16 16 16 16 15 15 15 15 15 15 14 14 14 14
29 29 28 27 27 27 28 29 29 29 28 28 27 25 23 22 21 20 19 18 17 17 17 16 16 16 16 16 16 16 16 16 16 16 16 16 16 16 16 15 15 15 15 15 15 15 14 14 14
Wind_Speed
10 7 5 4 5 3 3 3 2 2 2 2 2 1 1 1 2 3 6 18 21 21 22 21 19 18 17 16 16 16 16 16 16 15 14 13 12 11 10 10 10 10 9 10 10 10 10 11 11
7 5 5 5 4 1 5 3 2 3 3 3 3 2 1 1 4 6 10 19 22 22 22 21 20 19 18 17 16 16 16 16 15 14 13 12 11 11 11 10 10 10 10 10 10 10 10 10 11
6 6 5 4 2 2 4 4 3 2 2 3 2 1 1 2 4 6 12 22 22 21 21 21 21 20 19 18 17 16 16 16 15 14 13 12 11 11 11 10 10 10 10 10 10 10 10 10 11
5 5 5 5 1 2 2 2 1 2 3 3 2 2 3 4 3 7 18 23 22 20 21 23 21 20 19 18 17 16 16 15 14 14 13 12 11 10 10 10 10 10 10 10 9 9 9 9 10
6 5 6 4 2 1 1 3 3 4 3 4 4 1 3 4 5 12 20 22 21 20 20 23 21 20 19 18 17 16 16 15 14 13 12 11 11 10 10 10 10 10 10 10 9 9 8 9 9
5 5 5 2 4 1 0 2 3 4 4 3 4 3 3 6 9 16 20 20 20 20 19 22 20 19 19 18 17 16 15 15 13 13 12 12 11 10 10 10 9 9 9 9 8 8 8 8 8
6 5 2 0 1 1 1 1 4 4 4 4 3 2 4 8 11 16 18 18 19 18 18 20 20 19 18 17 16 16 15 14 13 12 12 11 10 10 9 9 8 8 8 8 7 7 7 8 8
5 5 4 2 1 1 1 2 3 6 4 2 4 4 4 10 13 16 17 17 17 16 17 17 18 18 18 17 16 15 14 14 13 12 11 10 10 9 9 9 8 7 7 6 6 7 7 7 7
5 6 3 0 1 3 3 4 3 3 4 5 5 2 5 16 17 17 17 17 16 15 14 16 16 16 16 16 17 16 15 13 13 12 11 10 10 10 9 8 8 6 6 5 5 5 5 5 8
5 6 1 2 5 7 7 7 5 5 7 7 6 4 11 18 18 19 19 19 19 18 16 14 14 14 14 13 15 13 13 13 11 10 11 9 7 6 6 10 6 5 5 5 5 4 5 6 7
5 6 5 5 7 9 10 9 7 8 8 7 8 10 15 18 18 18 18 18 19 18 16 15 14 13 12 10 12 10 10 10 10 9 9 7 7 7 6 7 8 7 7 6 7 6 4 3 2
7 8 9 9 10 10 10 8 7 8 7 3 4 11 17 18 18 17 17 17 16 17 16 15 14 13 11 10 10 10 9 9 8 9 9 7 5 5 4 4 4 5 4 3 3 3 3 2 3
9 9 9 10 11 10 9 9 8 6 4 1 5 13 17 17 17 16 15 15 16 16 16 15 14 13 11 9 8 9 8 9 9 8 8 6 5 4 4 3 3 3 3 4 4 3 4 3 4
6 10 12 11 7 5 7 7 6 3 1 3 8 12 15 15 15 15 14 14 16 16 16 14 14 13 12 10 8 7 9 8 8 8 8 7 5 4 4 4 4 3 3 2 3 3 4 4 3
9 11 9 4 3 3 7 7 3 1 2 5 8 11 13 14 14 15 15 15 15 14 14 14 14 13 13 11 10 8 8 9 7 7 7 6 5 4 4 4 4 4 4 4 4 4 4 4 4
9 9 7 1 2 2 6 6 3 2 4 6 8 10 11 12 13 13 13 13 14 13 14 14 13 14 13 10 9 7 7 8 7 7 7 6 5 5 5 4 4 4 4 4 3 4 4 4 4
9 8 5 2 1 4 7 9 2 2 4 6 8 9 11 11 12 12 13 13 13 13 13 14 13 13 12 10 8 8 7 6 6 6 6 6 5 5 5 4 3 5 4 4 4 4 4 4 3
5 7 6 6 4 8 10 9 4 2 4 6 7 9 10 11 12 11 11 12 12 12 13 14 14 13 11 9 8 7 7 6 6 6 5 6 6 6 5 4 4 5 4 4 3 3 2 2 3
8 9 9 7 5 9 10 10 5 3 5 6 8 9 10 11 10 10 11 11 12 12 13 13 14 14 12 10 9 8 8 7 6 6 6 6 6 6 5 4 4 4 4 4 5 4 5 4 3
10 11 10 6 5 7 10 10 3 3 5 6 7 9 10 10 10 11 12 12 13 13 14 13 13 14 13 10 8 7 7 7 6 5 6 6 6 6 6 4 5 4 3 4 4 4 4 4 4
12 11 9 10 9 7 9 8 3 3 5 5 6 7 8 9 10 11 12 13 13 13 13 13 13 13 13 12 9 8 7 6 6 7 6 6 6 6 4 5 4 4 5 5 5 5 6 4 4
12 8 8 9 11 8 5 9 1 3 4 6 7 7 7 7 9 10 10 12 12 13 13 13 13 13 12 13 12 13 10 9 8 7 6 7 7 6 6 5 4 4 4 3 5 4 4 5 5
11 5 7 9 10 11 6 8 2 2 3 4 6 7 7 7 8 9 9 10 10 11 12 12 13 12 12 12 13 12 10 8 8 7 8 7 7 6 6 6 5 4 3 3 2 3 4 5 5
8 7 8 10 10 9 4 7 5 1 2 1 5 7 7 7 8 8 8 8 8 10 11 11 12 12 13 13 12 12 12 10 10 10 9 8 7 6 7 6 5 5 3 4 3 3 4 3 3
11 10 9 9 8 5 1 5 4 3 0 1 4 7 8 8 8 9 9 9 9 10 11 12 12 12 12 12 12 12 12 11 11 10 10 8 7 7 7 6 5 4 4 4 3 3 2 3 3
13 14 11 9 7 5 2 4 3 2 2 3 5 7 9 9 9 9 10 10 10 11 11 12 12 12 12 12 11 11 11 9 8 9 8 9 7 6 7 7 6 5 5 5 4 4 4 3 3
11 13 12 11 11 10 6 4 1 4 5 6 7 9 9 9 9 10 10 10 11 11 11 12 12 12 12 11 11 10 11 9 8 8 8 7 6 6 8 7 7 7 6 5 5 4 4 4 4
11 9 8 10 10 10 7 5 3 2 5 8 9 10 10 9 10 10 10 11 11 11 11 11 12 12 12 12 11 10 10 10 9 8 8 7 7 6 8 8 8 8 7 7 6 5 5 5 4
10 10 10 10 9 10 9 4 2 1 4 8 10 10 11 11 10 11 11 12 13 12 13 12 12 11 11 11 11 10 10 10 9 8 8 8 8 8 9 9 8 8 8 8 7 7 6 7 6
10 12 12 11 10 10 11 6 4 1 3 6 9 10 11 11 11 11 12 13 13 13 13 13 13 12 11 11 11 10 9 9 9 9 9 8 9 9 9 9 9 8 8 8 9 9 8 8 8
Wind_Direction
185 196 225 243 243 217 58 54 20 43 57 66 122 186 311 350 345 54 117 152 150 150 148 153 152 149 145 141 139 137 135 134 134 133 131 130 128 124 120 115 110 105 102 100 100 101 100 102 105
184 203 235 247 261 102 81 58 43 43 64 118 157 195 228 82 54 101 141 152 152 151 151 155 151 150 147 145 142 140 138 136 136 135 133 130 128 124 119 113 109 106 103 101 101 103 103 104 107
192 234 261 255 257 34 61 58 43 77 139 179 168 213 340 58 114 136 149 154 156 152 152 148 152 151 149 147 145 143 141 139 138 136 132 129 126 123 118 115 109 105 103 101 101 102 106 108 111
219 230 241 248 205 67 1 3 344 198 179 200 214 149 109 60 120 142 150 158 156 153 154 149 155 153 151 150 148 146 144 142 139 136 134 132 130 123 117 114 108 104 101 99 99 101 106 112 118
241 254 238 209 132 87 294 308 262 230 204 202 222 201 118 103 125 144 155 160 157 157 155 151 156 154 153 152 151 149 147 145 142 139 137 134 128 121 117 112 109 103 100 98 96 98 103 111 120
239 247 238 159 105 97 219 249 235 241 232 209 222 228 106 119 144 152 159 162 161 159 155 149 156 156 155 155 154 153 150 147 143 141 138 133 129 124 121 116 111 105 101 99 97 95 98 105 115
265 257 245 202 102 118 28 306 255 257 241 220 217 219 132 140 148 155 160 164 163 162 156 154 160 160 159 158 157 156 152 147 145 142 138 135 132 128 124 119 115 110 106 103 99 96 94 99 112
274 263 220 203 254 36 32 286 279 274 261 183 208 226 165 155 154 157 161 165 165 165 160 158 164 162 164 162 160 158 155 150 147 144 143 140 139 137 133 140 122 118 114 109 103 98 97 100 111
259 248 221 157 301 329 326 288 270 259 234 199 211 252 121 147 155 159 163 166 167 169 166 165 164 163 166 164 158 162 158 154 155 155 151 164 165 153 158 124 121 127 124 117 111 106 109 126 131
240 253 279 332 303 306 304 287 268 236 229 219 200 152 137 150 161 167 171 173 173 173 172 170 167 165 168 165 160 166 167 162 173 160 164 174 157 155 141 123 139 140 138 144 130 130 168 202 154
241 266 306 297 293 296 292 281 257 253 252 240 218 178 161 163 168 175 178 180 178 174 172 171 169 168 170 165 164 168 167 164 170 162 166 162 166 165 163 161 162 168 177 179 154 189 192 172 133
254 269 279 285 298 292 287 283 264 255 273 311 221 172 169 173 176 179 180 183 180 176 175 175 170 171 175 172 168 170 169 167 168 161 174 170 177 177 168 178 171 179 178 170 193 184 173 166 174
249 277 288 287 287 286 278 270 270 268 276 223 168 167 177 180 179 181 180 183 181 178 177 175 175 174 172 173 178 175 170 170 166 165 174 180 184 185 178 183 191 200 172 180 192 192 174 183 186
284 288 286 285 287 275 273 270 248 272 274 192 179 179 182 182 180 179 177 179 181 181 179 176 177 176 175 176 180 177 173 170 167 171 171 186 188 185 188 191 195 200 197 189 192 179 183 197 183
281 280 272 248 286 302 288 258 229 280 198 191 185 182 180 182 182 183 181 181 180 179 179 179 179 180 180 180 181 180 176 171 174 166 166 178 188 185 198 199 202 195 182 178 201 183 189 194 188
255 255 257 188 307 316 287 301 74 138 199 192 183 178 177 183 187 184 183 183 179 178 180 181 182 180 182 180 179 177 176 169 171 167 167 176 180 189 206 205 202 187 202 200 192 205 195 193 197
232 252 277 288 276 307 288 304 11 160 207 195 185 181 181 183 189 187 186 184 180 179 177 181 183 178 179 176 176 173 168 169 171 168 171 173 184 191 207 211 185 196 203 207 212 190 213 189 194
258 275 279 300 324 306 294 302 319 210 215 204 193 188 188 192 192 188 188 188 183 180 179 183 183 179 175 169 168 166 168 172 175 174 169 177 183 189 203 197 189 209 203 200 204 176 204 199 200
282 279 283 299 320 305 301 308 311 216 212 208 203 199 199 202 192 184 187 188 185 184 180 183 184 180 176 175 173 170 174 172 176 177 172 182 186 182 203 197 177 212 201 205 198 196 185 199 193
258 266 274 287 319 304 305 300 294 211 214 216 208 205 207 201 192 187 190 193 194 189 185 182 184 182 181 177 173 173 168 172 170 171 168 182 183 185 192 198 196 196 189 196 202 215 223 192 207
250 258 279 302 308 262 294 279 200 187 201 207 210 209 206 202 197 193 195 198 195 191 186 185 185 185 181 171 162 159 156 162 168 174 175 180 182 187 195 193 210 193 212 194 205 209 221 214 202
247 252 276 290 294 306 316 309 260 188 207 207 205 203 201 197 195 193 193 191 190 190 186 182 179 180 175 170 173 173 177 178 176 175 169 172 180 184 184 187 191 203 212 183 207 204 224 228 212
252 270 272 280 284 288 279 295 331 183 238 205 194 194 193 189 190 189 190 188 186 183 179 176 175 174 175 178 178 180 182 176 166 165 162 177 173 181 180 179 181 190 201 188 209 187 231 222 232
237 244 251 255 264 270 306 301 320 20 320 191 172 179 184 180 179 178 179 176 172 170 170 170 171 171 174 178 180 185 180 172 165 171 171 182 174 178 176 178 179 190 183 175 193 202 203 234 240
221 238 245 244 240 263 53 287 323 21 290 208 177 172 173 173 173 171 172 172 169 167 167 167 169 170 173 177 183 184 179 175 176 180 182 185 178 176 173 177 179 182 177 183 188 198 203 201 204
222 235 248 267 277 292 230 287 349 90 155 168 166 163 167 171 171 169 169 171 171 168 166 167 170 170 172 176 180 179 177 179 180 186 185 188 187 177 167 178 184 187 189 191 190 203 194 194 210
222 233 251 263 270 279 279 285 234 158 176 175 169 167 172 170 166 165 167 169 167 166 167 169 169 169 172 174 171 173 179 180 176 179 190 185 180 174 177 186 191 194 197 200 201 206 199 196 218
245 245 234 248 261 271 270 274 313 198 191 182 181 176 170 169 166 162 165 165 163 164 163 166 168 170 172 173 172 171 176 177 178 183 187 185 184 186 187 194 199 200 200 202 210 208 199 210 219
204 220 236 248 261 272 280 291 49 322 200 188 183 177 170 170 167 163 164 164 163 163 162 163 164 166 172 173 174 172 175 177 180 186 190 189 192 194 200 203 206 207 207 207 211 225 209 218 220
234 234 229 243 248 251 274 284 102 135 175 181 175 171 167 168 165 161 161 164 165 166 165 164 166 168 170 171 173 176 174 176 183 187 192 194 197 203 206 209 211 214 214 213 216 223 221 223 226
Height
1515 1515 1516 1518 1510 1501 1501 1497 1495 1496 1496 1500 1502 1502 1501 1502 1505 1512 1514 1515 1518 1522 1524 1527 1531 1534 1536 1538 1540 1542 1544 1546 1547 1548 1550 1551 1552 1552 1553 1554 1555 1555 1556 1556 1557 1557 1558 1558 1558
1517 1517 1519 1515 1502 1503 1502 1496 1495 1496 1499 1502 1503 1504 1503 1504 1509 1511 1512 1515 1519 1523 1525 1528 1531 1535 1537 1539 1542 1543 1545 1547 1548 1550 1551 1552 1553 1554 1555 1556 1556 1557 1558 1558 1559 1559 1560 1560 1560
1518 1518 1517 1506 1500 1501 1500 1495 1495 1498 1501 1503 1503 1504 1505 1507 1510 1512 1513 1515 1520 1524 1527 1529 1532 1535 1538 1541 1543 1545 1546 1548 1550 1551 1552 1554 1555 1556 1557 1558 1558 1559 1559 1560 1561 1561 1562 1562 1563
1519 1519 1514 1504 1499 1496 1496 1494 1496 1498 1501 1503 1503 1503 1507 1510 1511 1512 1512 1516 1521 1525 1528 1530 1533 1536 1539 1541 1544 1546 1548 1549 1551 1552 1554 1555 1556 1557 1558 1559 1560 1560 1561 1562 1563 1563 1564 1564 1565
1519 1514 1504 1499 1497 1495 1495 1496 1497 1497 1498 1501 1503 1502 1506 1510 1510 1511 1513 1518 1522 1526 1530 1531 1534 1537 1540 1542 1545 1547 1549 1550 1552 1554 1555 1556 1557 1559 1559 1560 1561 1562 1563 1564 1564 1565 1566 1566 1567
1517 1509 1501 1499 1497 1495 1494 1496 1496 1496 1497 1501 1503 1502 1507 1510 1510 1512 1515 1520 1524 1527 1531 1531 1534 1538 1541 1543 1546 1548 1550 1551 1553 1555 1556 1557 1559 1560 1561 1562 1563 1563 1564 1565 1566 1567 1568 1568 1569
1514 1504 1499 1497 1497 1495 1494 1495 1495 1495 1496 1500 1502 1502 1507 1510 1511 1513 1517 1521 1525 1528 1531 1532 1535 1538 1541 1544 1546 1549 1551 1552 1554 1556 1557 1558 1560 1561 1562 1563 1564 1565 1566 1567 1568 1568 1569 1570 1571
1514 1505 1497 1496 1497 1495 1493 1495 1496 1496 1496 1500 1502 1502 1505 1509 1510 1514 1517 1521 1525 1529 1532 1533 1537 1539 1542 1544 1547 1549 1551 1553 1555 1556 1558 1559 1560 1562 1563 1564 1565 1566 1567 1568 1569 1570 1571 1572 1572
1514 1505 1497 1494 1497 1493 1493 1494 1496 1497 1497 1500 1501 1502 1504 1506 1509 1513 1517 1520 1524 1527 1531 1534 1537 1539 1543 1546 1547 1549 1552 1553 1555 1557 1558 1560 1563 1564 1564 1565 1566 1567 1568 1569 1570 1571 1572 1573 1574
1510 1500 1495 1494 1494 1493 1493 1494 1494 1495 1495 1497 1500 1503 1503 1505 1508 1511 1514 1517 1521 1525 1529 1532 1536 1539 1542 1546 1547 1550 1553 1554 1557 1558 1559 1562 1563 1564 1566 1565 1566 1567 1568 1570 1571 1572 1573 1574 1576
1506 1499 1495 1495 1495 1494 1492 1491 1492 1491 1490 1493 1496 1500 1502 1504 1507 1510 1513 1516 1519 1523 1527 1530 1534 1538 1541 1544 1547 1550 1552 1554 1556 1558 1559 1561 1563 1564 1566 1567 1567 1568 1569 1571 1571 1573 1575 1576 1577
1503 1499 1498 1496 1494 1493 1491 1489 1489 1490 1490 1493 1495 1498 1500 1502 1505 1508 1511 1514 1518 1521 1525 1529 1532 1536 1540 1544 1546 1549 1552 1554 1556 1557 1559 1561 1563 1564 1566 1566 1568 1569 1570 1571 1572 1573 1574 1575 1576
1501 1497 1495 1494 1492 1491 1490 1489 1488 1489 1491 1493 1494 1496 1499 1501 1504 1507 1510 1513 1516 1519 1523 1527 1530 1534 1538 1541 1545 1549 1551 1553 1555 1557 1559 1560 1563 1564 1565 1566 1567 1569 1569 1570 1571 1573 1573 1574 1576
1498 1496 1493 1491 1489 1489 1488 1486 1487 1488 1491 1492 1494 1495 1498 1500 1503 1506 1507 1510 1514 1518 1521 1525 1528 1532 1537 1540 1544 1547 1550 1552 1555 1557 1558 1560 1562 1563 1564 1565 1566 1568 1569 1570 1571 1572 1573 1574 1575
1498 1494 1487 1486 1487 1487 1487 1482 1484 1488 1490 1491 1493 1495 1497 1500 1502 1504 1506 1509 1512 1516 1520 1523 1527 1531 1535 1539 1543 1546 1549 1552 1554 1556 1557 1559 1561 1562 1564 1565 1566 1567 1568 1568 1570 1571 1572 1573 1575
1493 1490 1487 1483 1486 1486 1487 1484 1482 1487 1488 1489 1492 1494 1496 1499 1501 1504 1506 1508 1511 1514 1517 1521 1526 1530 1534 1537 1541 1545 1548 1551 1553 1555 1557 1558 1560 1561 1562 1564 1566 1566 1567 1569 1569 1571 1572 1573 1574
1488 1489 1487 1484 1483 1483 1483 1481 1480 1485 1486 1488 1491 1493 1496 1498 1501 1502 1504 1506 1509 1511 1515 1519 1524 1528 1532 1536 1540 1543 1546 1549 1552 1554 1556 1557 1559 1560 1562 1563 1564 1565 1567 1568 1569 1570 1572 1572 1573
1492 1490 1488 1486 1481 1481 1479 1477 1477 1483 1485 1487 1489 1492 1494 1497 1499 1501 1502 1505 1507 1510 1513 1517 1521 1525 1530 1533 1537 1541 1545 1547 1551 1553 1555 1556 1558 1559 1561 1562 1563 1565 1566 1567 1568 1568 1569 1571 1572
1491 1491 1489 1484 1480 1480 1477 1476 1475 1481 1483 1485 1488 1490 1493 1495 1497 1499 1500 1502 1505 1507 1511 1514 1519 1523 1527 1531 1535 1539 1543 1546 1549 1552 1553 1555 1557 1558 1559 1562 1562 1563 1565 1566 1567 1568 1569 1570 1571
1491 1491 1485 1480 1477 1480 1477 1474 1473 1478 1481 1483 1485 1488 1490 1493 1495 1497 1498 1499 1501 1504 1508 1511 1515 1520 1524 1528 1533 1537 1541 1545 1548 1550 1552 1554 1555 1557 1559 1560 1562 1563 1563 1564 1566 1567 1569 1570 1571
1488 1488 1484 1484 1478 1475 1477 1471 1472 1475 1479 1482 1484 1486 1487 1490 1492 1494 1495 1497 1499 1502 1505 1508 1512 1516 1521 1526 1531 1535 1539 1542 1546 1548 1550 1552 1554 1556 1558 1559 1561 1561 1563 1564 1564 1566 1567 1569 1570
1487 1480 1482 1482 1482 1476 1479 1482 1470 1470 1474 1477 1480 1483 1485 1488 1490 1491 1493 1494 1496 1499 1502 1506 1509 1514 1518 1523 1528 1533 1537 1540 1544 1547 1549 1551 1553 1555 1556 1557 1559 1560 1562 1562 1564 1565 1566 1567 1569
1481 1479 1481 1480 1480 1479 1474 1480 1469 1468 1470 1471 1476 1480 1483 1486 1488 1489 1491 1492 1495 1497 1500 1503 1507 1511 1516 1521 1526 1531 1535 1539 1542 1545 1547 1550 1552 1553 1555 1556 1557 1558 1561 1561 1562 1563 1565 1566 1568
1479 1481 1480 1478 1475 1486 1477 1482 1474 1464 1467 1468 1473 1478 1482 1484 1486 1488 1490 1491 1493 1495 1498 1501 1505 1509 1514 1519 1524 1528 1533 1537 1540 1543 1546 1549 1551 1552 1553 1555 1556 1558 1560 1560 1561 1562 1563 1565 1566
1478 1484 1489 1489 1486 1482 1473 1478 1471 1463 1465 1468 1471 1476 1480 1483 1485 1487 1489 1490 1492 1494 1497 1500 1504 1508 1512 1517 1522 1526 1530 1535 1538 1542 1545 1548 1550 1552 1552 1555 1555 1557 1558 1559 1560 1561 1562 1563 1564
1473 1475 1489 1495 1489 1476 1470 1474 1463 1462 1466 1469 1472 1475 1479 1482 1484 1486 1487 1489 1491 1494 1496 1500 1503 1507 1511 1516 1520 1525 1529 1533 1537 1540 1543 1546 1549 1551 1552 1553 1554 1556 1557 1558 1559 1561 1561 1562 1563
1471 1471 1463 1473 1476 1482 1471 1464 1458 1462 1465 1468 1470 1474 1477 1480 1483 1485 1487 1489 1491 1493 1496 1499 1502 1506 1510 1515 1519 1523 1527 1531 1535 1539 1542 1545 1547 1549 1550 1552 1553 1555 1556 1557 1558 1560 1560 1560 1562
1464 1461 1468 1474 1487 1489 1475 1468 1462 1459 1461 1464 1468 1472 1476 1479 1482 1484 1486 1488 1491 1493 1496 1499 1502 1506 1510 1514 1518 1523 1527 1530 1534 1537 1540 1543 1545 1547 1549 1550 1552 1553 1554 1555 1556 1558 1558 1559 1560
1467 1468 1466 1465 1468 1481 1483 1470 1450 1454 1457 1460 1465 1469 1474 1477 1480 1483 1486 1488 1491 1493 1496 1499 1502 1506 1509 1514 1518 1522 1526 1529 1533 1536 1539 1541 1543 1545 1547 1549 1550 1552 1553 1554 1555 1556 1557 1557 1558
1457 1458 1462 1472 1472 1470 1473 1465 1449 1452 1455 1459 1463 1468 1472 1476 1479 1482 1484 1487 1490 1493 1496 1499 1502 1505 1509 1513 1517 1520 1524 1528 1531 1534 1537 1539 1541 1543 1545 1547 1549 1550 1551 1552 1553 1554 1555 1555 1556